Location: Bouchavesnes-Bergen
(49.9859°N, 2.9203°E)
Time: 00:28:46
(UTC+00:00)

Envisat - Pass Details

Date: 08 February 2023
Orbit: 763 x 765 km, 98.2° (Epoch: 28 March)

Event Time Altitude Azimuth Distance (km) Brightness Sun altitude
Rises 05:53:50 0° 2° (N) 3,246 6.2 -12.9°
Reaches altitude 10° 05:57:07 10° 340° (NNW) 2,314 5.2 -12.3°
Maximum altitude 05:59:52 15° 306° (NW) 1,989 4.6 -11.9°
Enters shadow 06:00:31 15° 298° (WNW) 2,006 4.6 -11.8°
